Location: Unspecified
(50.7693°N, 0.0000°E)
Time: 09:34:11
(UTC+00:00)

deb Explorer IX - Pass Details

Date: 18 June 2019
Orbit: 539 x 1112 km, 38.8° (Epoch: 24 July)

Event Time Altitude Azimuth Distance (km) Brightness Sun altitude
Rises 16:33:44 0° 239° (WSW) 3,928 ? 31.6°
Reaches altitude 10° 16:36:55 10° 229° (SW) 2,960 ? 31.1°
Maximum altitude 16:42:59 29° 173° (S) 1,834 ? 30.1°
Drops below altitude 10° 16:48:42 10° 116° (ESE) 2,767 ? 29.2°
Sets 16:51:34 0° 106° (ESE) 3,634 ? 28.8°
